#timestamp,LO_Frequency,Hit,StdDev 
1692788415.1,286047000.2,N
1692788435.8,286047002.1,N
1692788455.7,286047004.0,Y
1692788475.5,286047000.0,P
1692788495.3,286047002.4,N
1692788515.2,286047002.1,N
1692788535.0,286047000.2,N
1692788535.9,286047000.2,N
1692788555.7,286047000.2,N
1692788575.6,286047002.1,N
1692788595.4,286046999.9,N
1692788615.2,286047000.1,N
1692788635.1,286047002.7,N
1692788636.0,286047002.7,N
1692788655.8,286047002.4,N
1692788675.6,286047001.7,N
1692788695.5,286047001.9,N
1692788715.3,286047005.1,Y
1692788735.2,286047004.0,P
1692788755.9,286047002.1,N
1692788775.7,286047002.2,N
1692788795.6,286047000.5,N
1692788815.4,286047000.7,N
1692788835.2,286047001.0,N
1692788855.1,286046998.8,N
1692788856.0,286046998.8,N
1692788875.8,286046998.7,N
1692788895.6,286047000.7,N
1692788915.5,286047001.1,N
1692788935.3,286046998.8,N
1692788955.1,286046999.5,N
1692788975.9,286047003.6,N
1692788995.7,286047002.7,N
1692789015.5,286047002.8,N
1692789035.4,286047002.0,N
1692789055.2,286047000.2,N
1692789075.0,286047000.4,N
1692789075.9,286047000.4,N
1692789095.8,286047004.1,N
1692789115.6,286047000.2,N
1692789135.4,286047000.2,N
1692789155.3,286046998.4,N
1692789175.1,286046998.8,N
1692789176.0,286046998.8,N
1692789195.8,286046999.4,N
1692789215.7,286046999.4,N
1692789235.5,286046998.8,N
1692789255.3,286046996.7,N
1692789275.2,286046999.2,N
1692789295.9,286046997.2,N
1692789315.7,286046998.0,N
1692789335.6,286046995.4,N
1692789355.4,286046996.9,N
1692789375.2,286046999.4,N
1692789395.1,286046996.6,N
1692789396.0,286046996.6,N
1692789415.8,286046997.1,N
1692789435.6,286046997.0,N
1692789455.5,286046998.8,N
1692789475.3,286047001.1,N
1692789495.1,286047005.3,N
1692789515.9,286047002.4,N
1692789535.7,286047000.9,N
1692789555.5,286046998.3,N
1692789575.4,286046998.9,N
1692789595.2,286046998.4,N
1692789615.0,286046998.9,N
1692789615.9,286046998.9,N
1692789635.8,286046999.2,N
1692789655.6,286046996.8,N
1692789675.4,286046996.9,N
1692789695.3,286047003.4,N
1692789715.1,286046999.7,N
1692789716.0,286046999.7,N
1692789735.8,286046998.3,N
1692789755.7,286047007.6,Y
1692789775.5,286047026.2,P
1692789795.3,286047012.9,N
1692789815.2,286047006.1,N
1692789835.9,286047003.5,N
1692789855.7,286047002.3,N
1692789875.6,286047000.5,N
1692789895.4,286047001.0,N
1692789915.2,286047001.2,N
1692789935.1,286046988.7,N
1692789936.0,286046988.7,N
1692789955.8,286046991.9,N
1692789975.6,286046993.2,N
1692789995.5,286046993.2,N
1692790015.3,286046990.1,N
1692790035.1,286046990.1,N
1692790055.9,286046993.0,N
1692790075.7,286046990.3,N
1692790095.5,286046988.5,N
1692790115.4,286046989.9,N
1692790135.2,286046989.3,N
1692790155.0,286046987.0,N
1692790155.9,286046987.0,N
1692790175.8,286046988.8,N
1692790195.6,286046989.3,N
1692790215.4,286046989.6,N
1692790235.3,286046990.8,N
1692790255.1,286046989.2,N
1692790256.0,286046989.2,N
1692790275.8,286046987.3,N
1692790295.7,286046989.0,N
1692790315.5,286046990.0,N
1692790335.3,286046987.3,N
1692790355.2,286046989.3,N
1692790375.9,286046987.1,N
1692790395.7,286046988.8,N
1692790415.6,286046989.5,N
1692790435.4,286046990.0,Y
1692790455.2,286046996.6,P
1692790475.1,286046996.7,N
1692790476.0,286046996.7,N
1692790495.8,286046999.0,N
1692790515.6,286047001.2,N
1692790535.5,286046996.5,N
1692790555.3,286046997.6,N
1692790575.1,286046996.6,N
1692790595.9,286046997.5,N
1692790615.7,286046999.5,N
1692790635.5,286046997.1,N
1692790655.4,286046998.9,N
1692790675.2,286046998.4,N
1692790695.0,286046997.2,N
1692790695.9,286046997.2,N
1692790715.8,286046997.7,N
1692790735.6,286046997.8,N
1692790755.4,286047011.9,Y
1692790775.3,286047001.0,P
1692790795.1,286046998.5,N
1692790815.8,286047001.0,N
1692790835.7,286047000.2,N
1692790855.5,286046998.6,N
1692790875.3,286046999.0,N
1692790895.2,286046999.0,N
1692790915.9,286046998.1,N
1692790935.7,286046998.5,N
1692790955.6,286046999.3,N
1692790975.4,286046998.5,N
1692790995.2,286046998.4,N
1692791015.1,286046998.5,N
1692791016.0,286046998.5,N
1692791035.8,286046998.7,N
1692791055.6,286046998.6,N
1692791075.5,286046998.2,N
1692791095.3,286046998.6,N
1692791115.1,286047001.2,N
1692791135.9,286046998.1,N
1692791155.7,286047005.1,Y
1692791175.5,286047009.1,P
1692791195.4,286047007.5,N
1692791215.2,286047005.0,N
1692791235.0,286047007.6,N
1692791235.9,286047007.6,N
1692791255.8,286047007.6,N
1692791275.6,286047007.4,N
1692791295.4,286047007.2,N
1692791315.3,286047004.9,N
1692791335.1,286047004.8,N
1692791355.8,286047005.5,N
1692791375.7,286047005.3,N
1692791395.5,286047006.0,N
1692791415.3,286047003.5,N
1692791435.2,286047005.6,N
1692791455.0,286047004.8,N
1692791455.9,286047004.8,N
1692791475.7,286047004.9,N
1692791495.6,286047007.5,Y
1692791515.4,286047000.1,P
1692791535.2,286047000.3,N
1692791555.1,286046999.9,N
1692791556.0,286046999.9,N
1692791575.8,286047000.3,N
1692791595.6,286047000.7,N
1692791615.5,286047002.7,N
1692791635.3,286047003.0,N
1692791655.1,286047003.3,N
1692791675.9,286047001.5,N
1692791695.7,286047003.1,N
1692791715.5,286047001.5,N
1692791735.4,286047000.7,N
1692791755.2,286047002.2,N
1692791775.0,286047000.1,N
1692791775.9,286047000.1,N
1692791795.8,286047000.6,N
1692791815.6,286047002.4,N
1692791835.4,286046998.9,N
1692791855.3,286046998.6,N
1692791875.1,286046998.5,N
1692791895.8,286047001.1,N
1692791915.7,286046999.0,N
1692791935.5,286046999.9,N
1692791955.3,286047000.9,N
1692791975.2,286047001.1,N
1692791995.0,286047001.1,N
1692791995.9,286047001.1,N
